Binghamton, NY
on Saturday, December 9, 2017

Saturday
       
Previous Day Next Day
Daily Summary
 ActualAverageRecord
Temperature
Mean Temperature °F °C 29°F -2°C  
Max Temperature 27°F -3°C 35°F 2°C 61°F 16°C (1966)
Min Temperature 20°F -7°C 23°F -5°C 1°F -17°C (1968)
Degree Days
Heating Degree Days 41 36  
Month to date heating degree days 287 308  
Since 1 July heating degree days 1685 1883  
Cooling Degree Days 0 0  
Month to date cooling degree days 0 0  
Year to date cooling degree days 349 381  
Moisture
Dew Point 13°F -11°C   
Average Humidity 63    
Maximum Humidity 68    
Minimum Humidity 57    
Precipitation
Precipitation 0.00 in / 0.00 cm 0.10 in / 2.54 cm 1.26 in / 3.20 cm (1973)
Month to date precipitation 0.31 0.93  
Year to date precipitation 47.20 37.40  
Snow
Snow 0.00 in / 0.00 cm 0.60 in / 1.52 cm 6.40 in / 16.26 cm (2009)
Month to date snowfall T 4.5  
Since 1 July snowfall 1.8 11.3  
Snow Depth 0.00 in / 0.00 cm   
Wind
Wind Speed 3 mph / 5 km/h   
Max Wind Speed 8 mph / 13 km/h   
Max Gust Speed 10 mph / 16 km/h   
Visibility 10 miles / 16 kilometers   
Events     

Key: T is trace of precipitation, MM is missing value
Source: NWS Daily Summary
Time(EST)TemperatureDew PointHumidity Pressure Visibility Wind DirectionWind SpeedGust SpeedPrecipitationEvents Conditions
12:53 AM 21.9°F -5.6°C 10.9°F -11.7°C 63% 29.94 in / 1013.6 hPa 10.0 miles / 16.1 kilometers SSW 4.6 mph / 7.4 km/h - N/A   Clear
1:53 AM 21.9°F -5.6°C 10.9°F -11.7°C 63% 29.94 in / 1013.9 hPa 10.0 miles / 16.1 kilometers WSW 5.8 mph / 9.3 km/h - N/A   Clear
2:53 AM 21.9°F -5.6°C 10.9°F -11.7°C 63% 29.95 in / 1014.1 hPa 10.0 miles / 16.1 kilometers WSW 6.9 mph / 11.1 km/h - N/A   Clear
3:53 AM 21.9°F -5.6°C 10.9°F -11.7°C 63% 29.94 in / 1013.7 hPa 10.0 miles / 16.1 kilometers South 3.5 mph / 5.6 km/h - N/A   Clear
4:53 AM 21.0°F -6.1°C 10.9°F -11.7°C 65% 29.92 in / 1013.2 hPa 10.0 miles / 16.1 kilometers SW 3.5 mph / 5.6 km/h - N/A   Clear
5:53 AM 21.9°F -5.6°C 12.0°F -11.1°C 66% 29.93 in / 1013.5 hPa 10.0 miles / 16.1 kilometers SW 3.5 mph / 5.6 km/h - N/A   Clear
6:53 AM 21.9°F -5.6°C 12.0°F -11.1°C 66% 29.94 in / 1013.7 hPa 10.0 miles / 16.1 kilometers Calm Calm - N/A   Clear
7:53 AM 21.9°F -5.6°C 12.9°F -10.6°C 68% 29.93 in / 1013.5 hPa 10.0 miles / 16.1 kilometers Calm Calm - N/A   Clear
8:53 AM 23.0°F -5.0°C 12.9°F -10.6°C 65% 29.93 in / 1013.5 hPa 10.0 miles / 16.1 kilometers Calm Calm - N/A   Scattered Clouds
9:53 AM 24.1°F -4.4°C 12.9°F -10.6°C 62% 29.88 in / 1011.8 hPa 10.0 miles / 16.1 kilometers ESE 3.5 mph / 5.6 km/h - N/A   Scattered Clouds
10:53 AM 24.1°F -4.4°C 12.9°F -10.6°C 62% 29.87 in / 1011.4 hPa 10.0 miles / 16.1 kilometers SE 5.8 mph / 9.3 km/h - N/A   Overcast
11:53 AM 25.0°F -3.9°C 12.0°F -11.1°C 58% 29.85 in / 1010.7 hPa 10.0 miles / 16.1 kilometers SSE 6.9 mph / 11.1 km/h - N/A   Overcast
12:53 PM 25.0°F -3.9°C 12.9°F -10.6°C 60% 29.81 in / 1009.4 hPa 10.0 miles / 16.1 kilometers SE 4.6 mph / 7.4 km/h - N/A   Overcast
1:53 PM 26.1°F -3.3°C 14.0°F -10.0°C 60% 29.79 in / 1008.6 hPa 10.0 miles / 16.1 kilometers Calm Calm - N/A   Overcast
2:53 PM 26.1°F -3.3°C 14.0°F -10.0°C 60% 29.78 in / 1008.4 hPa 10.0 miles / 16.1 kilometers Calm Calm - N/A   Overcast
3:53 PM 27.0°F -2.8°C 15.1°F -9.4°C 61% 29.78 in / 1008.3 hPa 10.0 miles / 16.1 kilometers West 3.5 mph / 5.6 km/h - N/A   Overcast
4:53 PM 26.1°F -3.3°C 15.1°F -9.4°C 63% 29.76 in / 1007.6 hPa 10.0 miles / 16.1 kilometers Calm Calm - N/A   Overcast
5:53 PM 25.0°F -3.9°C 16.0°F -8.9°C 69% 29.75 in / 1007.3 hPa 10.0 miles / 16.1 kilometers Calm Calm - N/A   Overcast
6:53 PM 24.1°F -4.4°C 16.0°F -8.9°C 71% 29.75 in / 1007.5 hPa 10.0 miles / 16.1 kilometers Calm Calm - N/A   Mostly Cloudy
7:53 PM 24.1°F -4.4°C 15.1°F -9.4°C 69% 29.74 in / 1007.0 hPa 10.0 miles / 16.1 kilometers Calm Calm - N/A   Clear
8:53 PM 24.1°F -4.4°C 12.9°F -10.6°C 62% 29.75 in / 1007.3 hPa 10.0 miles / 16.1 kilometers WSW 3.5 mph / 5.6 km/h - N/A   Clear
9:53 PM 21.0°F -6.1°C 12.9°F -10.6°C 71% 29.75 in / 1007.4 hPa 10.0 miles / 16.1 kilometers West 4.6 mph / 7.4 km/h - N/A   Clear
10:53 PM 21.0°F -6.1°C 12.9°F -10.6°C 71% 29.75 in / 1007.2 hPa 10.0 miles / 16.1 kilometers West 6.9 mph / 11.1 km/h - N/A   Clear
11:53 PM 21.0°F -6.1°C 14.0°F -10.0°C 74% 29.74 in / 1007.0 hPa 10.0 miles / 16.1 kilometers West 5.8 mph / 9.3 km/h - N/A   Clear